[[{"header":{"parameterUnit":"m.s-1","parameterCategory":1,"la1":30.2991,"la2":30.254,"lo1":-89.0895,"lo2":-89.0444,"dx":0.0017,"dy":0.0017,"nx":28,"ny":28,"refTime":"2022-12-30T15:00:00:Z","depth":0,"parameterNumber":2,"parameterNumberName":"U-component_of_WINDS"},"data":[0,0,0,0,0,0,0,0,0,0,0,0,0,0,0,0,0,0,0,0,0,0,0,0,0,0,0,0,0,0,0,0,0,0,0,0,0,0,0,0,0,0,0,0,0,0,0,0,0,0,0,0,0,0,0,0,0,0,-0.9755,-0.9755,0,-0.9723,-0.9722,-0.9722,-0.9688,-0.9687,-0.9687,-0.9686,-0.9656,-0.9655,-0.9655,0,0,0,0,0,0,0,0,0,0,0,0,0,-0.9788,-0.9788,-0.9755,-0.9755,-0.9755,-0.9723,-0.9722,-0.9722,-0.9688,-0.9687,-0.9687,-0.9686,-0.9656,-0.9655,-0.9655,0,0,0,0,0,0,0,0,0,0,0,0,0,-0.9767,-0.9788,-0.9755,-0.9734,-0.9731,-0.9723,-0.9722,-0.9722,-0.9688,-0.9687,-0.9687,-0.9686,-0.9656,-0.9656,-0.9655,-0.9666,0,0,-0.9653,-0.9653,0,0,0,0,0,0,0,0,-0.9768,-0.9766,-0.9737,-0.9735,-0.9733,-0.9709,-0.9723,-0.9703,-0.9688,-0.9705,-0.9686,-0.9686,-0.9674,-0.9672,-0.9668,-0.9665,-0.9663,-0.9653,-0.9653,-0.9653,-0.9653,0,0,0,0,0,0,0,-0.977,-0.9767,-0.9743,-0.9737,-0.9734,-0.9726,-0.9722,-0.9719,-0.9694,-0.9703,-0.9701,-0.9697,-0.9673,-0.9668,-0.9667,-0.9663,-0.9653,-0.9653,-0.9652,-0.9652,-0.9665,-0.9665,0,0,0,0,0,0,-0.9774,-0.9768,-0.9744,-0.9742,-0.9749,-0.9726,-0.9721,-0.9717,-0.9694,-0.969,-0.9698,-0.9696,-0.967,-0.9667,-0.9665,-0.9675,-0.9653,-0.9652,-0.9652,-0.9664,-0.9665,-0.9665,0,0,0,0,0,0,-0.9775,-0.9772,-0.9745,-0.9754,-0.975,-0.9726,-0.9721,-0.9717,-0.9712,-0.969,-0.9685,-0.9698,-0.9669,-0.9666,-0.9665,-0.9673,-0.9652,-0.9651,-0.9663,-0.9664,-0.9665,-0.9695,0,0,0,0,0,0,-0.9776,-0.9773,-0.9777,-0.9754,-0.975,-0.9745,-0.9722,-0.9717,-0.9711,-0.9708,-0.9688,-0.9685,-0.9668,-0.9666,-0.9665,-0.9672,-0.9651,-0.9662,-0.9664,-0.9665,-0.9694,-0.9697,-0.97,0,0,0,0,0,-0.9777,-0.9788,-0.9777,-0.9775,-0.9754,-0.9746,-0.9743,-0.9723,-0.9712,-0.9716,-0.9701,-0.9685,-0.9673,-0.9667,-0.9665,-0.9672,-0.9662,-0.9663,-0.9665,-0.9692,-0.9697,-0.97,0,0,0,0,0,0,-0.9814,-0.9785,-0.9773,-0.9776,-0.9764,-0.974,-0.9744,-0.9729,-0.972,-0.9718,-0.9694,-0.969,-0.9691,-0.9682,-0.9675,-0.968,-0.9665,-0.9666,-0.9686,-0.9691,-0.9694,-0.9696,-0.9651,0,0,0,0,0,-0.9822,-0.9817,-0.9792,-0.9798,-0.9792,-0.9769,-0.9765,-0.975,-0.9737,-0.9732,-0.9717,-0.9704,-0.9697,-0.9694,-0.9686,-0.9692,-0.9686,-0.9696,-0.9699,-0.9702,-0.9703,-0.9703,-0.9707,-0.967,-0.967,-0.967,0,0,-0.9839,-0.9823,-0.9822,-0.9805,-0.9793,-0.9788,-0.9765,-0.9762,-0.9758,-0.9731,-0.9729,-0.9717,-0.9702,-0.9704,-0.9704,-0.9696,-0.9712,-0.9704,-0.9707,-0.9706,-0.9705,-0.9709,-0.9712,-0.9671,-0.9671,-0.9671,0,0,-0.9868,-0.9856,-0.9858,-0.9846,-0.9828,-0.9812,-0.9813,-0.9791,-0.9782,-0.9779,-0.9758,-0.9753,-0.9742,-0.9731,-0.9724,-0.9746,-0.973,-0.9744,-0.9762,-0.9762,-0.9765,-0.9767,-0.9773,-0.9776,-0.9745,-0.9745,-0.9745,0,-0.9892,-0.9884,-0.9861,-0.9858,-0.985,-0.9824,-0.9825,-0.9815,-0.9797,-0.9792,-0.9783,-0.9766,-0.9755,-0.9752,-0.9757,-0.9753,-0.9752,-0.9746,-0.9766,-0.9768,-0.977,-0.9776,-0.9778,-0.9747,-0.9747,-0.9747,-0.9747,0,-0.9913,-0.9908,-0.9912,-0.9892,-0.9885,-0.9884,-0.9861,-0.9856,-0.9842,-0.9827,-0.9823,-0.9807,-0.9795,-0.9793,-0.978,-0.9788,-0.9783,-0.9771,-0.9755,-0.9776,-0.978,-0.9782,-0.9749,-0.9749,-0.9748,-0.9748,0,0,-0.9966,-0.9931,-0.9933,-0.9922,-0.9899,-0.9895,-0.9892,-0.9878,-0.9874,-0.9862,-0.9858,-0.9848,-0.9835,-0.9827,-0.9812,-0.9812,-0.9828,-0.9799,-0.9799,-0.9804,-0.9834,-0.9842,-0.9845,-0.9818,-0.9818,-0.9818,-0.9834,0,-0.999,-0.9982,-0.996,-0.996,-0.9953,-0.9927,-0.9924,-0.991,-0.9895,-0.9888,-0.9872,-0.9864,-0.9849,-0.9844,-0.9843,-0.9826,-0.9833,-0.9825,-0.9813,-0.9813,-0.9817,-0.9848,-0.9858,-0.9874,-0.9836,-0.9836,-0.9837,0,-1.0017,-1.0004,-1.0002,-0.9977,-0.9973,-0.9971,-0.9955,-0.9949,-0.9931,-0.992,-0.991,-0.9892,-0.9887,-0.9872,-0.9864,-0.9859,-0.9853,-0.9844,-0.9844,-0.9842,-0.9826,-0.9845,-0.9879,-0.9881,-0.984,-0.9839,-0.9839,0,-1.0053,-1.0035,-1.0031,-1.0023,-0.9994,-0.9993,-0.9981,-0.9962,-0.9954,-0.9941,-0.9935,-0.9922,-0.9915,-0.9905,-0.9884,-0.9875,-0.9877,-0.9861,-0.9867,-0.9868,-0.9869,-0.9869,-0.9901,-0.9867,-0.9867,-0.9867,-0.9867,0,-1.0081,-1.0081,-1.0046,-1.0044,-1.0042,-1.0016,-1.0015,-1.0001,-0.9984,-0.9978,-0.9955,-0.995,-0.9922,-0.9914,-0.9897,-0.9892,-0.9889,-0.988,-0.9875,-0.9881,-0.9882,-0.9877,-0.9875,-0.9867,-0.9867,-0.9867,-0.9867,0,-1.0122,-1.0098,-1.0092,-1.0064,-1.0057,-1.0056,-1.0032,-1.0028,-1.0012,-1.0004,-1.0,-0.9974,-0.9963,-0.994,-0.9923,-0.9912,-0.991,-0.9903,-0.9915,-0.9912,-0.9919,-0.9918,-0.9948,-0.995,-0.9916,-0.9916,-0.9916,0,-1.0141,-1.014,-1.0111,-1.0104,-1.0092,-1.0083,-1.0074,-1.0048,-1.004,-1.0018,-1.0016,-1.0003,-0.999,-0.9972,-0.9952,-0.9938,-0.993,-0.9941,-0.9928,-0.9933,-0.9928,-0.9928,-0.9927,-0.9944,-0.9944,-0.9945,-0.9945,0,-1.0177,-1.0165,-1.0153,-1.0136,-1.0126,-1.0112,-1.0097,-1.0093,-1.0063,-1.0055,-1.0042,-1.0032,-1.0013,-0.9999,-0.9981,-0.9969,-0.9952,-0.9949,-0.995,-0.9955,-0.9962,-0.9957,-0.9922,-0.9949,-0.9948,-0.9948,-0.9948,-0.9948,-1.0206,-1.0203,-1.0181,-1.0168,-1.0153,-1.0138,-1.0133,-1.0114,-1.0102,-1.0084,-1.0069,-1.0057,-1.0037,-1.0011,-0.9999,-0.9989,-0.9981,-0.9982,-0.9982,-0.9983,-0.9984,-0.9964,-0.9986,-0.9986,-0.9986,-0.9986,-0.9985,0,-1.024,-1.0224,-1.0212,-1.019,-1.0179,-1.0162,-1.0144,-1.0136,-1.0125,-1.0107,-1.0094,-1.0078,-1.0064,-1.0041,-1.0025,-1.0021,-1.0012,-1.0017,-1.0017,-1.0014,-0.9993,-0.9994,-1.0024,-1.0024,-1.0024,-1.0024,-1.0024,-1.0024,-1.0256,-1.0248,-1.0233,-1.0217,-1.0201,-1.0188,-1.0179,-1.0165,-1.015,-1.0133,-1.012,-1.0105,-1.0085,-1.0066,-1.0052,-1.0045,-1.004,-1.0047,-1.0038,-1.0019,-1.0016,-1.0012,-1.0013,-1.0046,-1.0047,-1.006,-1.006,-1.006]},{"header":{"parameterUnit":"m.s-1","parameterCategory":1,"la1":30.2991,"la2":30.254,"lo1":-89.0895,"lo2":-89.0444,"dx":0.0017,"dy":0.0017,"nx":28,"ny":28,"refTime":"2022-12-30T15:00:00:Z","depth":0,"parameterNumber":3,"parameterNumberName":"V-component_of_WINDS"},"data":[0,0,0,0,0,0,0,0,0,0,0,0,0,0,0,0,0,0,0,0,0,0,0,0,0,0,0,0,0,0,0,0,0,0,0,0,0,0,0,0,0,0,0,0,0,0,0,0,0,0,0,0,0,0,0,0,0,0,0.7623,0.7625,0,0.776,0.7762,0.7764,0.7752,0.775,0.7748,0.7746,0.7898,0.7904,0.791,0,0,0,0,0,0,0,0,0,0,0,0,0,0.7367,0.7372,0.7623,0.7625,0.7627,0.776,0.7762,0.7764,0.7753,0.775,0.7748,0.7745,0.7896,0.7903,0.7911,0,0,0,0,0,0,0,0,0,0,0,0,0,0.7489,0.7373,0.7623,0.7637,0.7639,0.776,0.7762,0.7764,0.7753,0.775,0.7747,0.7744,0.7894,0.7903,0.7912,0.803,0,0,0.7939,0.7943,0,0,0,0,0,0,0,0,0.7482,0.7498,0.7633,0.7636,0.7639,0.7736,0.7727,0.7854,0.7754,0.7711,0.7746,0.7743,0.7848,0.786,0.7893,0.8038,0.8044,0.794,0.7945,0.7949,0.7952,0,0,0,0,0,0,0,0.7474,0.7493,0.7678,0.7635,0.7639,0.7641,0.7655,0.7751,0.7796,0.7714,0.7713,0.7729,0.7849,0.7885,0.7897,0.8046,0.794,0.7948,0.7953,0.7957,0.8303,0.8307,0,0,0,0,0,0,0.746,0.7485,0.7674,0.7682,0.7551,0.7648,0.7664,0.7708,0.7794,0.7804,0.7732,0.7728,0.7871,0.7886,0.7902,0.8052,0.7949,0.7958,0.7963,0.83,0.8304,0.8308,0,0,0,0,0,0,0.7455,0.7477,0.7668,0.7584,0.7608,0.7656,0.7706,0.7713,0.7748,0.7807,0.7817,0.7759,0.7869,0.7889,0.8,0.8057,0.7962,0.797,0.8295,0.8301,0.8306,0.8349,0,0,0,0,0,0,0.7447,0.7475,0.7517,0.7584,0.7612,0.7759,0.7709,0.7718,0.7762,0.7759,0.7836,0.7846,0.7868,0.7986,0.8009,0.8068,0.7977,0.829,0.8298,0.8305,0.8343,0.8356,0.8366,0,0,0,0,0,0.7438,0.7524,0.7519,0.7541,0.7665,0.7762,0.7778,0.7799,0.7767,0.7812,0.7852,0.7843,0.8046,0.7997,0.8023,0.8085,0.8287,0.8296,0.8304,0.8338,0.8353,0.8366,0,0,0,0,0,0,0.7465,0.7533,0.7528,0.7637,0.7694,0.7759,0.7817,0.7814,0.7883,0.7877,0.7903,0.7921,0.8033,0.807,0.8014,0.8209,0.8163,0.8177,0.818,0.8196,0.8207,0.8197,0.7985,0,0,0,0,0,0.7483,0.7551,0.7609,0.7701,0.7729,0.7768,0.7811,0.7822,0.7883,0.7908,0.7954,0.8018,0.8096,0.8148,0.8223,0.8348,0.8369,0.8404,0.8416,0.8425,0.8438,0.8514,0.8532,0.8336,0.8336,0.8336,0,0,0.7522,0.7568,0.761,0.7707,0.7752,0.7828,0.7788,0.7868,0.7927,0.7921,0.8028,0.8065,0.8138,0.8258,0.8313,0.8292,0.8497,0.8436,0.8443,0.8451,0.8525,0.8543,0.856,0.8342,0.8341,0.834,0,0,0.7633,0.7672,0.7755,0.7801,0.7868,0.7894,0.7915,0.7982,0.8006,0.8113,0.8112,0.8184,0.8317,0.8371,0.8416,0.8552,0.855,0.8576,0.8639,0.8713,0.8728,0.8742,0.8797,0.8815,0.8588,0.8588,0.8588,0,0.7674,0.7783,0.7799,0.7881,0.7927,0.7922,0.8011,0.8056,0.8146,0.8181,0.8155,0.8326,0.8374,0.8509,0.8543,0.8577,0.8607,0.8568,0.8724,0.8738,0.8751,0.8804,0.8823,0.8591,0.8591,0.8591,0.859,0,0.7834,0.791,0.797,0.8055,0.8108,0.8192,0.8227,0.8279,0.8287,0.8318,0.8432,0.8489,0.8579,0.8612,0.862,0.8751,0.8737,0.8717,0.8673,0.8773,0.8823,0.8843,0.8596,0.8595,0.8594,0.8593,0,0,0.7964,0.8058,0.8081,0.8122,0.8198,0.826,0.8348,0.8432,0.848,0.8544,0.8622,0.8737,0.8721,0.8772,0.8788,0.8852,0.8964,0.8826,0.8828,0.8854,0.9119,0.9136,0.9158,0.8962,0.8965,0.8968,0.9115,0,0.8086,0.8236,0.8255,0.8392,0.8467,0.8466,0.8543,0.8602,0.8635,0.8707,0.8745,0.8828,0.8797,0.8829,0.8892,0.8936,0.9018,0.8926,0.9042,0.9046,0.9027,0.9183,0.92,0.9335,0.9134,0.9137,0.9139,0,0.8247,0.8314,0.8457,0.8527,0.856,0.8628,0.8711,0.8778,0.8847,0.8867,0.8926,0.8935,0.9033,0.8982,0.9122,0.9059,0.9108,0.9137,0.9143,0.9158,0.9101,0.9207,0.9378,0.94,0.9169,0.9167,0.9165,0,0.8335,0.846,0.8563,0.8597,0.8681,0.8731,0.8769,0.8834,0.8886,0.896,0.8995,0.908,0.9129,0.9197,0.9232,0.9191,0.9372,0.9322,0.9397,0.9396,0.9437,0.9434,0.9623,0.9461,0.9461,0.9461,0.946,0,0.8471,0.856,0.8604,0.8667,0.877,0.8793,0.8896,0.8933,0.8992,0.9069,0.9074,0.9146,0.9185,0.9265,0.9293,0.9408,0.9429,0.9453,0.946,0.9454,0.9452,0.9489,0.9483,0.9466,0.9465,0.9464,0.9463,0,0.8586,0.8618,0.8731,0.8801,0.8822,0.8894,0.8958,0.9023,0.9056,0.9153,0.9177,0.9231,0.9326,0.9366,0.9483,0.9503,0.9637,0.9634,0.9612,0.9615,0.9689,0.9684,0.9912,0.9946,0.9757,0.9759,0.976,0,0.8672,0.874,0.8818,0.8867,0.8906,0.8986,0.9039,0.9067,0.9123,0.921,0.9267,0.9361,0.9439,0.9592,0.9645,0.9737,0.9741,0.9814,0.9755,0.9749,0.9749,0.9746,0.9756,0.9826,0.9828,0.983,0.9831,0,0.8824,0.8837,0.891,0.8991,0.9054,0.912,0.9184,0.9226,0.9266,0.933,0.9425,0.9485,0.9606,0.9702,0.9798,0.9844,0.9848,0.9849,0.9872,0.9869,0.9856,0.987,0.9647,0.9844,0.9843,0.9842,0.9841,0.9841,0.8931,0.8993,0.9059,0.9143,0.9194,0.9256,0.9322,0.9363,0.9442,0.954,0.9553,0.9658,0.9733,0.9861,0.9911,0.9998,0.998,1.0012,1.0021,1.003,1.0037,0.9838,1.0015,1.0015,1.0014,1.0014,1.0014,0,0.9087,0.913,0.9206,0.9296,0.9364,0.9356,0.9429,0.9488,0.9578,0.9645,0.9721,0.9836,0.9931,0.9992,1.0089,1.0148,1.0152,1.0173,1.0171,1.0184,1.0044,1.0017,1.0168,1.0168,1.0168,1.0168,1.0168,1.0168,0.9177,0.9284,0.9306,0.9443,0.9486,0.9586,0.9629,0.9689,0.9743,0.9869,0.9946,0.9984,1.0052,1.0155,1.0245,1.0261,1.0299,1.0322,1.0338,1.0208,1.0192,1.0177,1.0152,1.0329,1.0329,1.0471,1.0472,1.0473]}]]